Regional Weather Roundup
Issued by NWS

Home | Current Version | Previous Version | Text Only | Print | Product List | Glossary Off
Versions: 1 2 3 4 5 6 7 8 9 10 11 12 13 14 15 16 17 18 19 20 21 22 23 24 25 26 27 28

000
ASUS42 KTBW 220516
RWRFL
FLORIDA REGIONAL WEATHER ROUNDUP
NATIONAL WEATHER SERVICE TAMPA BAY RUSKIN FL
100 AM EDT SUN APR 22 2018

NOTE: "FAIR" INDICATES FEW OR NO CLOUDS BELOW 12,000 FEET WITH NO
SIGNIFICANT WEATHER AND/OR OBSTRUCTIONS TO VISIBILITY.

FLZ001>010-012>015-112-114-115-220600-
PANHANDLE FLORIDA

CITY           SKY/WX    TMP DP  RH WIND       PRES   REMARKS
PENSACOLA      FAIR      69  64  84 E7        30.07S
PENSACOLA NAS  FAIR      69  64  84 E8        30.07S
MILTON NAS     CLOUDY    67  65  93 E5        30.09
CRESTVIEW      CLOUDY    67  62  84 E8        30.11F
DUKE FIELD     FAIR      68  63  84 E8        30.09F
VALPARAISO     CLOUDY    69  64  82 E12       30.08F
MARY ESTHER    MOCLDY    70  65  83 E9        30.07F
TRI COUNTY     FAIR      66  62  87 E3        30.14F
PANAMA CITY    MOCLDY    68  62  81 NE8       30.10F
TYNDALL AFB    FAIR      68  63  83 E12       30.11F
APALACHICOLA   CLOUDY    71  67  87 E13G23    30.11S

STATION/POSITION SKY/WX   TEMP    WIND        PRES    WAVE   SWELL
                          AIR SEA DIR/SP/G            HT/PER HT/PER
                          (F)     (DEG/KT/KT) (MB)    (FT/S) (FT/S)
30.1N   87.6W              69     100/ 10/ 12 1018.0F   3/ 7   2/ 7
29.2N   88.2W                 71  110/ 14/ 16 1017.9R   4/ 7   3/ 7
28.8N   86.0W              72 73  110/ 12/ 14 1018.3F   3/ 6   2/ 6
PANAMA CITY BEAC           69 70  100/ 10/ 16 1019.9F
TOWER C                    70      90/ 21/ 25 1019.8R

$$
FLZ011-016>038-118-127-128-134-139-239-220600-
NORTH FLORIDA

CITY           SKY/WX    TMP DP  RH WIND       PRES   REMARKS
MARIANNA       FAIR      68  61  78 E10       30.14S
TALLAHASSEE    MOCLDY    68  62  81 E15       30.16S
PERRY          CLOUDY    69  62  76 E10G16    30.17R
LIVE OAK       CLOUDY    66  63  88 VRB7      30.20S
CROSS CITY     CLOUDY    70  65  84 E9        30.16S
LAKE CITY      MOCLDY    64  61  88 E5        30.20S
GAINESVILLE    CLOUDY    70  62  76 E10       30.21S
WILLISTON      PTCLDY    72  66  83 VRB3      30.18S
PALATKA        CLOUDY    68  64  88 E9        30.21S
MAYPORT NAS    MOCLDY    68  61  78 E15       30.22F
JACKSONVILLE   MOCLDY    67  59  75 E10       30.22S
JAX CECIL      CLOUDY    66  61  82 VRB3      30.22S
FERNANDINA BEA FAIR      68  59  74 E12G17    30.22F
ST AUGUSTINE   FAIR      69  63  81 E15       30.22F
PALM COAST     CLOUDY    70  63  77 E13       30.20S

STATION/POSITION SKY/WX   TEMP    WIND        PRES    WAVE   SWELL
                          AIR SEA DIR/SP/G            HT/PER HT/PER
                          (F)     (DEG/KT/KT) (MB)    (FT/S) (FT/S)
SHELL POINT      NOT AVBL
KEATON BEACH               68      70/ 11/ 12 1021.1R
CEDAR KEY                  72     100/ 15/ 17 1021.3R
FERNANDINA                 68 67  110/  7/ 13 1024.8F
30.7N   81.3W                 66                N/A     6/ 7
MAYPORT                    68 66   90/ 11/ 16 1023.6F
31.4N   80.9W              66 65  110/ 10/ 12 1024.4F   5/ 7   3/ 7
ST AUGUSTINE               69 67  100/ 14/ 15 1023.2F

$$
FLZ040-043>046-052-053-057-058-063-144-220600-
INTERIOR CENTRAL FLORIDA

CITY           SKY/WX    TMP DP  RH WIND       PRES   REMARKS
OCALA          CLOUDY    71  65  81 VRB6      30.18S
LEESBURG       FAIR      70  67  90 E8        30.17F
SANFORD        CLOUDY    69  64  84 E12       30.17F
ORLANDO EXEC   MOCLDY    72  66  81 E15       30.16F
ORLANDO INTL   MOCLDY    72  67  84 E14       30.16F
KISSIMMEE      CLOUDY    70  69  97 E9        30.16F
WINTER HAVEN   CLOUDY    72  67  84 E12       30.15F
LAKELAND       CLOUDY    72  66  83 E16G22    30.14F
SEBRING        CLOUDY    70  66  89 E3        30.13F
OKEECHOBEE     MOCLDY    70  68  94 CALM      30.13F

$$
FLZ041-047-054-059-064-141-147-220600-
EAST CENTRAL FLORIDA

CITY           SKY/WX    TMP DP  RH WIND       PRES   REMARKS
DAYTONA BEACH  FAIR      71  64  78 E8G17     30.19S
DELAND         CLOUDY    70  64  83 E9        30.17F
JFK SPACE CTR  FAIR      73  65  77 E13       30.17F
CAPE CANAVERAL FAIR      73  65  75 E18G24    30.16F
PATRICK AFB    FAIR      74  68  81 E22       30.15F
MELBOURNE      CLOUDY    75  68  78 E18G24    30.16S
VERO BEACH     CLOUDY    75  69  81 E13G22    30.15F
FT PIERCE      LGT RAIN  73  71  93 E14       30.14F
STUART         FAIR      77  70  78 E13G23    30.15F

STATION/POSITION SKY/WX   TEMP    WIND        PRES    WAVE   SWELL
                          AIR SEA DIR/SP/G            HT/PER HT/PER
                          (F)     (DEG/KT/KT) (MB)    (FT/S) (FT/S)
28.5N   80.2W              74 72   90/ 19/ 25 1021.7F   8/ 8   3/ 8
28.9N   78.5W              72 76   70/ 19/ 25 1023.4F   7/ 8   2/14
TRIDENT PIER               73 76   70/ 14/ 21 1023.1F
28.4N   80.5W                 75                N/A     5/ 8
27.5N   80.2W                 75                N/A     6/ 9

$$
FLZ050-056-061-142-242-148-248-149-249-151-251-155-255-
160-260-220600-
WEST CENTRAL FLORIDA

CITY           SKY/WX    TMP DP  RH WIND       PRES   REMARKS
CRYSTAL RIVER  CLOUDY    72  64  78 E9        30.15F
INVERNESS      CLOUDY    72  68  88 E6        30.17S
BROOKSVILLE    CLOUDY    73  65  75 E10       30.15S
CLEARWATER AIR CLOUDY    72  66  83 E9G18     30.13S
ST PETE CLEARW CLOUDY    73  69  87 E12       30.12S
TAMPA INTL     CLOUDY    74  67  78 E9G18     30.13S
TAMPA EXEC     CLOUDY    72  66  83 E7        30.14S
PLANT CITY     CLOUDY    73  68  83 E7        30.15F
MACDILL AFB    FAIR      73  68  86 E13       30.12S
PETER O KNIGHT CLOUDY    72  70  94 E9        30.14S
ST PETERSBURG  CLOUDY    74  70  87 E15       30.11S
SARASOTA       MOCLDY    72  68  87 E13       30.10R
VENICE         CLOUDY    73  70  88 E9G16     30.10F

STATION/POSITION SKY/WX   TEMP    WIND        PRES    WAVE   SWELL
                          AIR SEA DIR/SP/G            HT/PER HT/PER
                          (F)     (DEG/KT/KT) (MB)    (FT/S) (FT/S)
27.3N   84.2W                 75                N/A     2/ 5
CLEARWATER BEACH           74 76   90/ 15/ 21 1019.9F
MIDDLE TAMPA BAY           73     110/ 14/ 16 1019.8S
VENICE                     73 76   90/  8/ 11 1019.4R

$$
FLZ066-069-070-075>078-162-262-165-265-220600-
SOUTHWEST FLORIDA AND KEYS

CITY           SKY/WX    TMP DP  RH WIND       PRES   REMARKS
PUNTA GORDA    MOCLDY    71  66  84 E6        30.12F
FT MYERS       FAIR      74  70  87 E12       30.09F
SOUTHWEST INTL FAIR      72  70  93 E8        30.10F
NAPLES         FAIR      74  72  93 E10       30.09F
MARCO ISLAND   FAIR      72  69  90 E8        30.10F
MARATHON       FAIR      79  72  79 E8        30.08S
KEY WEST NAS   MOCLDY    77  71  82 E14       30.08S
KEY WEST INTL  FAIR      78  71  79 E12       30.08F

STATION/POSITION SKY/WX   TEMP    WIND        PRES    WAVE   SWELL
                          AIR SEA DIR/SP/G            HT/PER HT/PER
                          (F)     (DEG/KT/KT) (MB)    (FT/S) (FT/S)
NAPLES                     75 80              1018.8F
26.0N   85.6W              78 79  110/  6/  8 1017.8
DRY TORTUGAS               77     120/ 12/ 14 1018.0F
SAND KEY                   77                 1018.3F
SOMBRERO KEY               78      40/ 15/ 17 1017.8F
LONG KEY                   78 81   60/ 16/ 18 1018.3F

$$
FLZ067-068-071>074-168-172>174-220600-
SOUTHEAST FLORIDA

CITY           SKY/WX    TMP DP  RH WIND       PRES   REMARKS
W PALM BEACH   FAIR      76  70  82 E20       30.12F
FT LAUDER-EXEC FAIR      76  72  87 E15       30.10F
FT LAUDERDALE  MOCLDY    78  73  84 E16       30.10S
POMPANO BEACH  FAIR      77  73  87 E12       30.11F
PEMBROKE PINES FAIR      78  71  79 E12       30.12F
OPA LOCKA      MOCLDY    78  73  84 E9        30.10F
MIAMI          FAIR      77  72  84 E12       30.10F
WEST KENDALL   FAIR      75  70  84 E9        30.10S
HOMESTEAD      FAIR      77  72  83 E10       30.08F

STATION/POSITION SKY/WX   TEMP    WIND        PRES    WAVE   SWELL
                          AIR SEA DIR/SP/G            HT/PER HT/PER
                          (F)     (DEG/KT/KT) (MB)    (FT/S) (FT/S)
PORT EVERGLADES            78      70/ 11/ 16 1019.3
VIRGINIA KEY               79 80   60/ 12/ 16 1018.5F
LAKE WORTH                 76 78  120/ 17/ 19 1021.0F
FOWEY ROCKS                78 78   80/ 19/ 20 1019.5F
SETTLEMENT POINT           76      90/ 23/ 25 1020.4F

$$





USA.gov is the U.S. government's official web portal to all federal, state and local government web resources and services.